This demonstration page uses our WeatherBlox Daily Observations layout. Learn more.

Left ArrowRight Arrow

39.29038, -76.61219

Hourly Observations for October 22, 2020

Temp ( °F °C ) Dew Point ( °F °C ) Humidity (%) Winds ( mph kmh ) Pressure ( in mb ) Visibility ( mi km ) Precip ( " mm )
12:54 am 00:54 Mostly Clear with Patchy Fog 60 15.6 59 15 96 96 Calm 30.22 1023 6 10 0.00 0.00
1:22 am 01:22 Mostly Cloudy with Mist and Fog 60 15.6 58 14.4 93 93 Calm 30.22 1023 2 3 0.00 0.00
1:45 am 01:45 Mostly Cloudy with Mist and Fog 61 16.1 59 15 93 93 Calm 30.21 1023 1 2 0.00 0.00
1:54 am 01:54 Mostly Cloudy with Mist and Fog 61 16.1 59 15 93 93 Calm 30.21 1023 1 2 0.00 0.00
2:09 am 02:09 Mostly Cloudy with Mist and Fog 60 15.6 59 15 96 96 Calm 30.21 1023 1 1 0.00 0.00
2:36 am 02:36 Mostly Cloudy with Fog 61 16.1 59 15 93 93 Calm 30.21 1023 0 0 0.00 0.00
2:43 am 02:43 Mostly Cloudy with Fog 61 16.1 59 15 93 93 Calm 30.21 1023 1 2 0.00 0.00
2:54 am 02:54 Mostly Cloudy with Fog 60 15.6 59 15 96 96 Calm 30.21 1023 1 2 0.00 0.00
3:19 am 03:19 Mostly Cloudy with Fog 60 15.6 59 15 96 96 Calm 30.21 1023 1 2 0.00 0.00
3:54 am 03:54 Mostly Cloudy with Fog 62 16.7 60 15.6 93 93 Calm 30.20 1023 1 2 0.00 0.00
4:07 am 04:07 Mostly Cloudy with Fog 62 16.7 61 16.1 96 96 Calm 30.20 1023 1 2 0.00 0.00
4:52 am 04:52 Mostly Cloudy with Fog 63 17 63 17 100 100 Calm 30.21 1023 1 2 0.00 0.00
4:54 am 04:54 Mostly Cloudy with Fog 63 17.2 62 16.7 97 97 Calm 30.20 1023 1 2 0.00 0.00
5:18 am 05:18 Mostly Cloudy with Fog 62 16.7 61 16.1 96 96 Calm 30.21 1023 1 2 0.00 0.00
5:54 am 05:54 Mostly Cloudy with Fog 62 16.7 61 16.1 96 96 Calm 30.20 1023 1 2 0.00 0.00
6:54 am 06:54 Mostly Cloudy with Fog 62 16.7 61 16.1 96 96 Calm 30.21 1023 1 2 0.00 0.00
7:54 am 07:54 Mostly Cloudy with Fog 62 16.7 61 16.1 96 96 Calm 30.22 1024 1 2 0.00 0.00
8:37 am 08:37 Mostly Cloudy with Fog 63 17.2 62 16.7 97 97 Calm 30.23 1024 1 2 0.00 0.00
8:54 am 08:54 Mostly Cloudy with Fog 63 17.2 62 16.7 97 97 Calm 30.24 1024 1 2 0.00 0.00
9:28 am 09:28 Mostly Cloudy with Fog 64 17.8 62 16.7 93 93 Calm 30.25 1024 1 2 0.00 0.00
9:54 am 09:54 Mostly Cloudy with Fog 64 17.8 63 17.2 96 96 Calm 30.24 1024 0 0 0.00 0.00
10:16 am 10:16 Mostly Cloudy with Fog 65 18.3 64 17.8 97 97 Calm 30.25 1024 0 0 0.00 0.00
10:31 am 10:31 Cloudy with Fog 65 18.3 64 17.8 97 97 Calm 30.25 1024 1 1 0.00 0.00
10:54 am 10:54 Cloudy with Fog 66 18.9 64 17.8 93 93 Calm 30.25 1024 1 1 0.00 0.00
11:48 am 11:48 Cloudy with Mist and Fog 68 20 64 18 88 88 Calm 30.25 1024 1 2 0.00 0.00
11:54 am 11:54 Cloudy with Mist and Fog 68 20 64 17.8 87 87 Calm 30.24 1024 1 2 0.00 0.00
12:13 pm 12:13 Cloudy with Mist and Fog 69 20.6 65 18.3 87 87 SE 3 6 30.25 1024 2 2 0.00 0.00
12:35 pm 12:35 Cloudy with Haze 70 21.1 65 18.3 84 84 Calm 30.24 1024 3 5 0.00 0.00
12:54 pm 12:54 Mostly Cloudy with Haze 71 21.7 65 18.3 81 81 Calm 30.23 1024 3 5 0.00 0.00
1:07 pm 13:07 Hazy 72 22.2 65 18.3 79 79 Calm 30.22 1024 5 8 0.00 0.00
1:54 pm 13:54 Hazy 75 23.9 65 18.3 71 71 Calm 30.20 1023 6 10 0.00 0.00
2:54 pm 14:54 Hazy 77 25 66 18.9 69 69 E 6 9 30.19 1022 6 10 0.00 0.00
3:54 pm 15:54 Mostly Sunny 78 25.6 67 19.4 69 69 VRB 6 9 30.17 1022 8 13 0.00 0.00
4:54 pm 16:54 Mostly Sunny 77 25 66 18.9 69 69 E 7 11 30.17 1022 10 16 0.00 0.00
5:54 pm 17:54 Mostly Sunny 74 23.3 66 18.9 76 76 E 6 9 30.17 1022 10 16 0.00 0.00
6:54 pm 18:54 Mostly Clear 72 22.2 65 18.3 79 79 E 5 7 30.18 1022 10 16 0.00 0.00
7:54 pm 19:54 Mostly Clear 68 20 64 17.8 87 87 ESE 3 6 30.19 1023 10 16 0.00 0.00
8:54 pm 20:54 Clear 67 19.4 63 17.2 87 87 Calm 30.20 1023 10 16 0.00 0.00
9:54 pm 21:54 Clear 66 18.9 62 16.7 87 87 E 5 7 30.21 1023 7 11 0.00 0.00
10:54 pm 22:54 Mostly Clear 62 16.7 59 15 90 90 Calm 30.20 1023 7 11 0.00 0.00
11:54 pm 23:54 Mostly Clear 63 17.2 60 15.6 90 90 Calm 30.19 1022 9 14 0.00 0.00

Powered by AerisWeather